RESURS P2 (40360 NORAD) Tracking and Keplerian Element Data

This shows tracking and keplerian element data for the satellite.

Feedback or suggestion? Click here.




ElementValue
Catalog40360
NameRESURS P2
Epoch Orbit21811
Epoch Day323.80954817
Epoch Year2018
RAAN53.3281
Inclination97.2662
Eccentricity0.0011288
Argument of Perigee86.9162
Mean Anonmoly27.8676
Mean Motion15.32836992
Decay Rate5.01E-06
L11 40360U 14087A 18323.80954817 .00000501 00000-0 18170-4 0 9999
L22 40360 97.2662 53.3281 0011288 86.9162 27.8676 15.32836992218118

Live tracking and technical data element details for RESURS P2 (NORAD 40360). RESURS P2 can be tracked NOW for your location showing map with azimuth and elevation plus other details from your city location.

Track the satellite on the map from your city or location and see movement details for azimuth, elevation, latitude, longitude, range, height, and movement on the map or in text.







IsCatalogInMostPopularTable: catalog: 40360, numindb: 124
Update: records affected: 1



GetName: 40360 RESURS P2

Hit Count: updated at: Wed, 21 Nov 2018 05:59:16 GMT